Location: Unspecified
(17.6330°N, 0.0000°E)
Time: 05:58:22
(UTC+00:00)

S-56A Canister/Altair - Pass Details

Date: 26 June 2019
Orbit: 632 x 2500 km, 38.9° (Epoch: 17 July)

Event Time Altitude Azimuth Distance (km) Brightness Sun altitude
Rises 11:04:18 0° 215° (SW) 6,137 12.0 75.2°
Reaches altitude 10° 11:08:29 10° 211° (SSW) 5,158 11.7 76.1°
Maximum altitude 11:22:55 53° 139° (SE) 2,677 11.3 79.0°
Drops below altitude 10° 11:34:28 10° 66° (ENE) 4,216 11.6 81.2°
Sets 11:37:29 0° 62° (ENE) 4,984 11.8 81.8°
